Theta_e
327 328 331 334 333 333 331 330 330 331 332 332 332 331 329 326 323 321 319 319 319 320 319 318 319 318 319 321 324 325 325 325 324 324 324 328 335 336 334 334 336 338 337
324 327 330 331 332 333 333 331 328 327 328 328 327 326 325 325 323 321 320 321 325 327 326 325 324 322 322 320 318 321 322 322 323 324 325 330 334 336 335 333 333 332 332
320 325 329 330 332 331 331 331 329 327 326 326 326 325 325 324 321 319 320 322 325 327 323 321 320 320 319 320 323 323 323 322 321 321 321 324 328 329 332 333 332 326 324
318 322 325 327 327 330 330 326 327 326 326 326 325 323 323 320 320 319 319 322 324 324 321 320 321 322 320 321 321 321 320 320 321 323 323 322 324 324 324 325 326 325 324
318 318 319 320 324 325 325 328 326 326 329 332 332 330 318 316 317 318 320 322 323 321 320 320 317 315 314 314 314 316 317 318 319 321 322 323 329 324 322 320 320 321 320
320 317 315 314 315 316 318 328 327 328 332 333 332 328 316 315 315 315 314 315 316 317 316 314 313 312 311 310 310 311 311 312 313 314 316 320 325 322 323 323 323 324 322
320 320 317 315 315 314 313 320 327 331 333 332 327 317 314 313 313 313 312 312 312 312 312 310 306 304 304 304 304 304 304 304 304 306 310 315 317 318 320 322 323 323 325
321 321 320 319 316 313 316 326 332 331 331 328 315 313 312 312 311 310 309 308 307 305 304 303 303 303 303 303 304 304 304 304 303 303 303 305 308 311 315 319 320 320 321
320 321 320 320 316 314 314 320 326 328 329 324 315 312 310 310 308 306 304 304 304 303 303 303 303 304 304 304 305 305 305 305 304 304 303 303 303 304 306 310 314 315 316
318 318 319 319 318 315 313 314 316 317 318 316 314 312 310 308 305 304 304 304 304 304 304 304 304 305 305 306 306 306 306 306 306 305 305 304 303 303 304 303 306 308 310
317 317 317 319 319 316 314 314 314 314 314 314 312 311 309 306 303 304 304 304 304 303 304 304 305 305 305 305 306 306 306 306 306 306 306 305 304 304 303 302 302 302 304
317 317 317 317 318 318 316 314 314 314 314 313 311 310 308 305 303 304 304 304 304 304 304 304 304 305 305 305 305 305 305 305 305 305 305 304 303 303 302 302 302 302 302
316 316 317 317 316 317 318 315 314 313 313 313 310 309 308 305 303 304 304 304 304 304 304 304 305 305 305 305 304 305 305 305 305 304 304 304 303 302 301 301 301 301 301
315 316 316 316 316 316 317 317 314 313 313 313 311 309 308 306 303 304 305 305 304 304 304 304 304 304 304 304 304 304 304 304 304 304 304 304 303 301 300 300 300 300 301
315 315 315 316 316 316 316 316 316 315 313 313 312 309 308 307 304 304 304 305 304 304 304 304 303 303 303 303 303 303 303 303 303 303 303 303 302 301 300 300 300 302 304
316 316 315 315 315 316 316 316 316 316 315 313 313 311 309 307 306 304 304 305 304 304 304 304 303 303 303 303 303 303 303 303 303 302 302 302 302 301 299 300 303 305 311
315 315 315 315 315 315 315 316 316 315 315 315 314 312 310 308 307 304 303 304 304 304 303 303 303 303 303 303 303 302 302 302 302 302 301 300 300 299 299 307 311 314 312
314 314 314 314 315 315 315 315 315 315 315 315 314 313 311 309 307 305 303 302 303 303 303 303 303 302 302 302 302 302 302 302 301 301 301 299 299 299 299 299 300 303 304
313 313 313 313 313 314 314 314 314 315 315 315 315 314 313 310 308 305 304 302 302 302 302 302 302 302 301 301 301 301 301 301 301 300 300 299 298 297 297 297 298 299 300
312 312 312 312 312 312 313 313 313 314 314 315 315 314 314 312 309 306 305 302 301 301 301 301 301 301 301 300 300 300 300 300 300 299 299 297 296 296 295 296 296 296 295
312 312 312 312 312 312 312 312 312 313 313 314 314 314 314 313 311 308 306 303 301 301 301 301 300 300 300 300 299 299 299 299 299 298 298 297 296 295 295 294 295 294 294
311 311 310 311 310 310 311 311 310 311 311 312 313 314 314 313 312 309 306 305 302 300 300 300 300 300 299 299 299 299 298 297 297 297 297 296 295 294 294 294 294 293 293
311 310 310 309 310 310 309 308 308 308 309 309 310 312 313 313 312 310 308 305 302 300 300 301 299 299 299 299 299 299 299 300 297 297 296 294 293 293 293 293 293 293 293
310 309 309 310 309 309 308 307 307 307 309 309 309 309 310 311 312 310 308 305 303 301 300 300 299 299 298 299 298 299 300 300 299 297 296 294 294 293 293 293 293 292 292
308 309 309 309 308 307 306 306 306 306 305 304 305 308 308 308 309 311 308 305 302 300 300 300 299 298 298 298 298 299 299 299 299 299 297 296 295 294 293 292 292 292 292
307 307 307 307 307 308 307 306 305 304 304 304 305 305 304 305 306 307 309 306 303 301 300 300 300 299 298 297 297 298 299 299 299 298 298 296 296 295 293 293 292 291 291
Wind_Speed
24 21 22 21 21 19 18 18 16 14 13 12 13 12 12 11 9 8 6 5 5 5 6 6 5 4 5 4 1 0 1 1 2 4 5 5 4 5 6 6 6 7 8
24 23 22 21 22 21 19 17 17 16 14 12 11 11 11 11 10 9 8 7 6 6 5 3 3 3 3 3 1 1 1 1 1 2 3 4 1 1 2 3 3 5 4
21 24 24 22 20 20 20 18 17 15 14 13 12 11 11 11 10 9 8 8 8 9 5 4 3 2 2 1 1 1 2 2 2 2 2 2 3 3 3 2 2 2 2
18 23 25 24 22 20 19 18 18 17 15 14 15 14 15 14 12 10 9 10 11 12 7 6 6 5 4 4 4 4 4 3 3 3 3 4 3 5 5 5 4 3 2
18 23 24 24 24 23 20 19 19 17 15 14 13 13 13 11 9 9 10 11 12 13 10 9 8 9 8 7 7 7 7 6 5 5 5 5 2 4 5 6 6 5 4
17 21 22 23 23 23 22 21 19 17 16 17 16 14 12 11 10 10 11 13 13 12 11 11 9 8 8 8 8 8 8 7 8 8 8 7 6 8 6 7 6 6 6
15 18 21 22 22 22 22 22 20 20 20 20 18 13 12 12 11 10 11 11 11 11 10 9 8 7 6 5 5 5 5 6 7 8 9 9 10 10 9 9 9 9 8
15 17 19 21 22 21 22 23 21 22 23 23 16 14 13 12 11 11 11 10 10 10 9 7 5 4 3 3 2 2 2 3 4 5 6 9 10 11 11 11 12 11 11
17 19 20 21 23 23 23 23 22 23 25 25 19 15 14 12 12 12 11 10 9 8 7 6 5 5 4 4 4 4 4 4 5 5 5 8 8 11 11 11 13 13 12
19 20 22 23 25 26 25 24 25 25 25 24 20 17 15 14 14 14 12 12 11 10 9 8 7 6 5 5 5 5 5 5 5 6 7 7 8 10 10 12 13 13 14
20 22 23 25 26 28 27 26 25 25 24 24 21 20 17 17 16 16 15 13 12 12 11 10 8 7 6 5 5 5 5 5 6 6 7 8 10 11 11 11 12 13 13
23 24 25 26 28 29 30 28 27 27 27 25 25 23 21 20 18 17 15 14 13 12 11 9 7 7 6 5 5 5 5 5 5 6 7 8 9 10 11 12 12 12 13
23 26 26 27 28 30 31 31 32 31 30 29 27 26 23 22 22 21 20 18 17 15 13 12 10 9 7 6 6 5 5 5 5 6 7 7 8 9 10 11 12 13 13
26 26 29 29 31 31 32 33 34 34 33 33 31 29 27 27 26 25 23 21 19 18 16 14 13 11 9 8 6 5 5 5 6 6 6 6 7 8 9 10 11 11 12
27 26 29 30 32 33 35 35 37 37 37 35 34 33 31 30 29 27 25 23 23 21 18 17 15 13 10 8 6 5 5 6 6 6 6 6 6 8 8 9 10 8 6
24 23 26 30 34 36 37 38 39 39 39 39 38 36 35 33 32 31 30 28 27 24 22 19 17 14 12 10 7 6 6 7 7 7 6 6 6 7 8 9 7 5 8
23 23 26 28 32 38 39 40 42 41 42 42 41 40 39 38 36 34 33 32 30 28 25 22 20 17 14 12 10 8 7 8 8 8 7 6 4 5 7 8 10 11 11
36 36 35 34 34 37 41 43 45 46 44 44 44 43 42 41 39 38 37 35 33 31 29 26 24 21 18 15 12 10 9 9 9 9 8 7 6 7 7 8 10 12 13
31 32 34 34 38 38 40 44 47 49 48 48 47 46 45 44 43 42 40 38 37 35 33 30 27 24 21 18 15 13 11 11 10 10 10 10 10 9 9 9 10 11 10
20 21 24 26 31 35 40 45 49 51 53 52 52 50 48 47 46 44 42 41 40 39 37 33 31 28 24 22 19 16 14 13 12 12 12 12 12 11 11 12 11 11 11
11 15 18 22 23 29 35 42 48 53 53 54 54 52 51 50 49 47 46 45 44 43 40 37 35 31 29 26 21 17 15 14 14 13 14 14 13 13 13 13 12 11 12
14 12 14 17 21 25 29 34 40 42 47 49 53 55 54 53 52 50 49 48 47 46 43 41 39 37 34 31 24 18 11 14 16 17 17 16 16 15 13 13 13 13 13
21 12 15 15 16 18 22 27 31 38 38 39 45 52 54 54 54 51 51 50 49 48 47 46 44 41 39 34 32 17 8 8 13 18 19 18 18 17 16 14 13 13 13
29 22 15 12 13 15 16 21 26 29 35 38 41 42 47 51 54 53 53 53 51 50 49 48 46 44 42 39 35 34 26 13 9 9 22 23 23 21 20 16 14 14 15
30 29 28 24 18 12 10 13 19 23 25 24 31 37 39 40 46 54 54 55 54 53 52 50 48 46 45 42 40 38 35 29 22 15 10 21 28 26 26 21 17 16 16
25 25 26 25 22 19 17 13 13 17 21 26 30 34 36 35 35 43 55 56 56 55 54 52 50 48 46 45 42 40 38 35 33 27 20 16 20 26 28 26 22 20 19
Wind_Direction
194 194 193 190 181 182 183 186 190 195 199 194 189 190 189 193 197 204 211 233 255 249 241 248 257 250 251 259 325 147 133 112 105 98 95 98 96 84 80 84 86 84 71
195 195 196 199 189 186 187 189 191 194 199 203 209 207 202 201 203 211 222 231 242 250 257 266 278 307 332 14 55 228 251 231 181 140 125 123 105 109 80 60 50 48 54
194 196 198 203 197 196 195 192 194 199 204 211 219 228 232 236 242 240 231 226 236 250 271 283 258 254 260 247 224 212 244 259 259 240 205 190 228 253 268 287 302 1 19
189 199 203 206 208 207 204 205 202 204 212 218 225 229 233 236 242 244 231 226 232 248 265 268 266 265 255 243 234 228 241 248 266 261 239 223 235 251 265 271 283 293 298
191 199 205 209 211 214 214 208 208 206 211 220 212 220 226 219 216 222 229 232 239 249 255 251 256 262 267 266 259 251 244 241 243 254 255 244 168 261 263 266 268 267 262
201 201 207 208 212 214 216 213 211 204 207 215 207 214 228 232 226 231 236 236 243 252 257 261 261 261 262 262 261 258 254 251 247 244 245 244 228 260 259 273 277 277 265
215 209 208 209 212 214 215 214 210 205 207 218 217 226 235 234 237 235 235 240 245 252 259 265 272 271 268 260 251 250 250 249 246 246 245 236 246 254 255 258 264 270 282
220 217 216 215 215 213 212 205 205 208 214 225 234 235 233 237 234 230 234 237 238 239 243 241 235 237 242 249 260 256 248 248 246 242 242 243 253 252 253 259 263 264 265
217 216 219 219 217 219 219 213 213 212 220 231 238 238 235 232 230 227 225 225 227 229 226 219 212 216 223 233 249 256 263 261 260 260 254 253 257 264 264 262 263 267 267
227 224 221 221 220 220 222 222 221 223 225 235 238 238 233 229 226 221 217 216 213 211 211 214 218 227 238 245 249 255 260 266 270 270 269 271 270 271 271 267 264 266 267
237 232 227 223 222 224 225 225 225 227 227 232 234 235 232 229 223 218 215 213 209 206 208 211 215 222 232 239 244 251 255 263 267 268 268 265 267 271 274 274 273 270 269
244 242 235 230 226 225 227 226 227 229 230 232 232 230 227 228 224 221 219 217 216 213 214 219 224 231 240 249 253 258 264 271 276 275 270 269 267 267 268 270 272 272 271
254 243 243 238 233 229 229 227 227 228 229 230 231 230 229 226 222 220 220 216 215 214 216 218 222 227 231 236 244 255 267 275 276 277 278 272 270 273 273 271 268 270 275
252 248 243 238 237 236 232 230 231 231 231 231 230 229 228 227 224 223 222 219 217 216 218 219 221 221 222 225 232 242 253 261 268 275 276 275 272 267 266 270 272 271 274
249 244 243 242 240 238 236 234 233 232 233 234 232 231 229 228 228 228 226 224 222 221 221 221 220 221 224 230 239 253 270 278 281 282 282 271 259 251 252 256 260 263 268
259 252 247 245 241 240 239 237 238 236 235 233 233 233 231 230 228 227 226 225 225 223 224 224 224 226 228 232 242 258 274 282 285 285 281 271 262 249 244 243 231 229 196
267 266 258 253 248 243 242 239 238 238 237 236 235 233 232 231 230 229 227 226 225 225 225 225 227 227 229 233 239 248 260 271 279 283 283 271 254 239 214 154 145 161 192
274 272 271 261 252 247 245 243 241 238 237 238 237 235 233 231 230 229 229 227 227 225 225 226 226 226 227 230 237 247 261 272 277 277 271 258 239 224 236 243 235 224 244
276 273 268 259 252 249 247 245 244 242 241 238 237 237 236 233 231 230 230 229 229 227 226 225 225 225 225 228 232 239 247 252 256 256 253 247 240 232 227 229 220 222 229
285 273 266 259 254 250 247 244 242 241 240 239 239 238 237 236 234 231 231 230 229 228 226 226 225 224 223 224 227 231 238 243 243 241 240 234 230 228 229 229 232 229 228
296 284 274 266 263 255 249 242 240 241 241 240 240 240 239 238 236 233 232 231 229 229 228 227 225 223 222 222 222 224 233 236 237 238 239 235 232 231 230 230 231 234 238
336 305 289 283 274 264 257 254 246 245 244 244 242 242 240 238 236 235 234 233 231 229 227 227 227 223 220 221 216 219 220 233 233 233 229 226 223 219 221 231 237 241 241
20 332 314 308 283 270 267 259 251 244 244 247 244 244 242 240 240 237 237 236 233 232 230 230 227 225 225 220 218 207 198 214 213 226 225 222 216 221 227 229 237 240 240
28 22 2 331 325 297 277 264 259 258 254 256 258 258 254 247 243 240 239 238 236 234 233 232 231 229 225 224 218 220 225 219 186 203 226 224 225 228 231 237 243 242 235
50 49 47 40 26 7 328 295 280 273 263 262 259 261 262 264 252 243 241 240 238 236 234 234 233 231 231 229 225 223 222 226 227 214 210 224 229 233 228 238 244 242 237
37 34 34 33 31 29 20 359 321 299 286 274 276 272 272 269 260 250 242 240 241 240 238 237 234 232 233 233 230 232 233 227 226 222 222 222 230 227 229 231 238 236 229